Theta_e
280 282 282 282 283 284 281 282 282 282 280 286 288 288 287 289 291 290 284 284 287 287 288 289 290 290 291 292 291 291 290 291 292 293 294 294 294 296 297 298 300 302 299 300
278 280 282 281 282 284 284 279 276 278 279 288 290 289 288 290 291 290 289 287 285 286 286 287 285 289 291 289 290 290 290 290 292 293 293 293 295 296 297 300 301 301 299 299
277 278 280 280 279 282 282 282 284 280 287 288 287 289 289 290 291 290 290 289 289 288 287 286 287 288 288 290 291 290 290 290 291 292 292 293 294 295 296 299 300 300 300 301
276 278 274 282 284 285 284 285 285 285 288 290 290 290 291 291 290 290 290 289 289 288 287 287 287 286 288 290 289 289 289 290 291 291 291 291 292 295 296 299 298 299 299 300
274 272 278 281 282 282 283 283 287 288 288 289 289 289 288 291 291 290 290 290 289 288 287 286 286 286 288 288 288 288 289 289 290 292 291 290 292 293 296 297 297 297 297 299
271 271 270 280 285 287 287 280 287 289 288 288 290 285 285 289 289 289 289 289 289 288 287 286 285 286 286 285 286 287 288 288 290 290 291 291 291 291 292 294 292 288 291 294
274 266 275 282 285 287 278 281 288 290 290 290 289 288 289 288 288 288 288 288 287 287 285 284 284 285 284 284 284 284 286 287 288 289 289 291 292 290 291 290 289 289 289 289
274 266 272 285 285 283 287 288 288 288 291 290 288 288 287 287 286 286 285 285 285 284 283 283 283 284 284 283 283 284 284 285 285 285 287 289 289 289 288 289 288 287 286 285
281 280 285 288 286 289 290 289 287 287 290 289 287 286 285 284 283 283 283 283 283 281 281 280 280 283 283 281 283 284 284 284 284 285 285 285 287 286 286 287 287 287 286 286
283 284 284 287 288 290 291 290 289 290 290 288 285 285 284 283 283 282 282 281 280 278 278 278 277 279 282 282 284 285 284 284 285 284 285 285 285 286 287 287 286 286 286 287
279 282 284 286 288 290 288 288 288 288 288 286 285 284 284 282 281 281 281 278 275 275 275 275 273 276 273 283 284 284 284 284 284 284 285 285 285 286 286 287 287 287 288 287
280 284 285 287 288 288 287 286 286 284 283 283 285 282 282 281 280 280 278 276 274 274 273 273 271 272 273 281 283 284 284 284 285 285 285 285 285 286 289 289 290 291 292 289
284 285 285 286 285 284 284 283 283 285 285 283 282 282 281 279 277 275 273 271 272 271 269 268 270 271 269 272 282 282 283 284 284 285 285 285 285 285 285 287 290 291 291 291
285 285 284 282 284 282 282 280 279 278 279 281 280 278 277 275 271 273 273 271 268 266 267 266 267 269 270 268 277 278 277 283 284 285 285 285 285 285 285 285 286 286 289 290
282 284 285 280 278 276 279 280 279 278 276 275 275 276 276 272 269 269 265 263 263 265 266 266 265 267 267 267 268 267 273 282 283 284 285 285 285 285 285 285 286 286 285 287
277 277 278 280 278 276 276 276 277 274 274 275 272 269 268 266 263 264 262 263 266 265 263 261 261 265 265 265 267 267 269 281 282 283 284 284 285 285 285 285 285 286 286 286
278 273 272 273 276 276 270 272 277 275 270 269 267 264 263 264 261 261 259 257 258 260 260 260 263 263 262 264 266 270 270 274 281 282 283 283 284 284 285 285 286 285 286 286
276 277 277 279 275 271 267 267 269 271 269 266 263 263 267 265 260 258 257 256 257 259 260 261 260 261 263 264 265 268 269 273 278 281 282 283 283 284 285 285 286 286 286 286
267 270 270 269 268 267 265 263 260 262 262 260 260 259 256 255 254 254 252 256 255 255 260 258 267 262 263 265 271 271 274 277 279 279 281 282 283 284 284 284 285 286 286 286
262 261 262 260 260 261 259 256 258 257 252 256 254 254 254 253 251 251 250 253 255 259 256 257 258 261 262 264 267 266 268 271 276 279 280 280 281 282 283 284 284 285 285 286
259 260 260 260 256 257 256 253 257 257 250 251 255 253 253 251 249 248 252 254 258 255 256 258 258 262 263 264 266 265 262 265 269 272 276 280 281 281 282 283 283 284 284 285
258 260 260 259 260 257 254 250 254 254 253 252 249 249 250 252 250 250 254 257 257 258 256 258 260 260 262 264 264 263 263 263 264 265 267 270 275 279 281 282 282 283 284 285
258 259 260 261 261 258 255 254 252 251 252 251 251 251 252 254 253 254 256 255 253 257 258 258 259 263 266 263 261 262 263 264 265 266 266 267 269 271 274 277 281 283 284 284
253 255 253 252 254 257 257 253 250 249 250 249 249 250 252 254 255 253 255 257 257 258 258 259 261 266 263 258 260 262 263 263 265 266 267 267 269 270 271 273 275 278 282 284
251 250 252 255 256 253 251 249 250 249 250 250 250 250 250 250 255 254 253 256 258 259 258 259 264 264 258 257 258 261 262 263 263 264 265 266 268 269 271 272 273 275 276 278
250 252 251 252 251 249 249 249 249 248 248 250 250 250 250 250 250 252 252 255 255 256 256 258 258 256 255 257 258 259 261 262 263 264 264 265 266 268 269 270 272 274 276 278
248 250 250 248 247 247 247 248 248 249 248 247 250 252 250 251 251 252 253 254 253 254 254 256 256 257 258 258 259 260 261 261 262 263 263 264 265 266 267 269 270 271 274 276
Wind_Speed
3 3 3 5 13 17 12 7 12 8 10 14 17 12 9 7 6 5 4 5 4 3 4 4 5 4 5 7 7 6 7 6 6 6 5 5 5 4 4 3 4 3 3 4
0 2 0 4 7 20 18 4 4 4 6 4 8 6 6 7 7 5 4 4 3 4 4 4 4 5 5 5 6 6 8 8 6 5 5 5 5 6 5 4 4 3 4 5
4 2 3 6 12 14 10 5 13 10 6 6 6 10 9 8 7 6 5 4 4 4 3 4 5 5 6 5 5 7 6 5 5 5 5 5 5 4 5 5 4 4 5 4
3 3 3 6 1 10 10 13 6 3 8 11 10 5 6 5 7 7 6 4 4 4 5 6 5 5 5 3 5 6 6 6 6 5 5 5 5 5 4 3 4 4 5 4
6 4 5 3 6 10 10 9 16 13 8 7 12 7 5 4 4 6 6 5 3 3 2 4 5 6 4 5 4 5 4 5 5 6 6 5 5 5 4 3 3 4 3 4
3 7 11 6 5 7 5 4 13 18 12 18 13 8 5 7 6 6 6 5 5 4 3 5 6 5 6 6 5 3 2 5 5 5 5 6 6 5 3 2 3 0 3 2
5 3 8 7 7 6 7 8 7 16 17 21 13 4 10 10 6 5 5 7 5 5 6 5 5 5 7 6 6 5 4 3 2 4 4 4 4 3 2 3 4 2 4 2
3 4 9 8 8 11 6 1 6 9 16 15 11 17 17 12 10 8 8 6 5 6 6 5 5 4 6 7 5 4 4 3 2 2 1 2 4 3 3 3 4 7 3 2
9 7 0 10 3 4 5 7 6 8 13 16 20 17 15 12 9 7 7 6 3 5 6 5 6 6 7 6 6 5 5 5 4 2 1 2 2 2 1 2 2 2 4 2
6 4 3 8 2 5 4 5 7 10 19 21 19 17 14 11 10 7 5 5 2 1 6 7 5 5 5 5 6 6 5 5 4 3 1 1 2 1 1 3 2 1 2 4
1 2 5 2 2 6 6 10 14 12 17 20 20 16 14 11 9 7 6 2 3 3 5 4 4 5 4 6 6 6 5 4 3 2 3 3 1 2 3 3 2 2 3 2
6 10 5 8 7 8 11 12 16 20 11 7 17 16 14 10 6 6 6 3 2 4 4 2 3 4 5 6 6 6 4 4 3 3 2 2 1 3 7 9 7 8 7 4
5 7 3 7 8 4 9 9 7 13 16 18 10 14 11 10 5 5 4 3 5 4 3 2 4 5 4 6 6 6 5 6 4 4 4 2 3 3 3 2 8 9 8 10
11 11 7 0 7 8 14 11 13 13 10 11 11 8 8 8 3 4 6 4 3 2 5 4 5 6 5 4 5 4 4 6 5 4 3 3 2 4 5 5 3 2 7 8
6 4 8 11 9 9 12 15 16 13 10 10 7 9 7 8 5 4 3 2 2 4 7 7 7 7 6 5 4 4 4 5 5 5 5 4 3 3 3 3 5 5 1 3
8 9 10 15 14 11 11 10 17 9 8 7 8 7 6 7 5 5 3 6 6 4 5 4 4 5 6 5 5 4 3 7 6 6 6 6 4 4 4 4 5 6 6 5
15 6 7 8 14 12 5 4 12 10 8 8 7 6 6 6 5 6 5 4 2 2 4 2 5 5 4 4 4 3 3 5 6 6 6 6 6 7 5 5 5 5 8 5
8 9 6 15 15 11 7 7 10 10 7 7 6 5 4 8 4 2 3 4 4 5 4 2 4 3 5 5 4 4 3 4 5 6 6 7 7 6 6 6 6 7 6 5
10 12 12 13 9 12 10 8 6 7 7 5 5 6 4 3 1 1 3 6 5 5 4 5 8 6 5 7 7 4 5 6 6 6 7 8 8 8 8 8 9 9 8 5
11 10 13 10 9 7 10 6 8 8 4 6 6 5 4 2 2 4 4 3 5 4 4 5 5 5 6 6 7 3 5 7 7 7 6 7 7 8 8 11 11 10 9 7
10 10 11 12 9 8 8 4 6 7 3 4 5 3 2 3 3 1 2 3 5 1 4 5 3 4 4 5 6 4 3 5 6 7 8 7 7 8 8 9 10 10 10 8
4 8 8 8 9 8 5 4 6 6 5 5 3 1 2 4 3 3 6 5 3 4 3 3 4 5 5 7 3 4 5 5 4 4 6 7 8 9 8 8 9 10 10 10
6 5 6 7 7 6 5 5 4 5 4 3 3 3 3 3 2 0 3 3 3 5 4 3 5 8 9 3 3 4 6 7 6 6 6 6 7 8 9 10 10 10 9 11
3 5 5 4 5 5 7 3 3 2 1 1 3 4 3 2 3 3 3 5 6 6 4 5 6 10 7 2 4 5 6 6 7 7 8 9 8 8 8 9 11 11 10 11
5 4 4 5 6 3 3 1 3 4 4 4 4 2 2 3 3 3 3 5 8 6 5 6 10 10 4 4 5 6 6 7 7 7 8 9 9 9 10 10 10 11 11 12
4 4 4 5 4 3 2 3 2 2 2 3 3 2 3 2 3 3 3 5 5 6 5 5 5 4 4 5 6 6 7 7 8 8 9 9 10 10 10 11 11 12 12 12
4 4 3 3 3 2 2 3 2 2 2 2 3 3 3 3 3 3 4 4 4 4 4 5 5 6 6 7 7 7 7 8 9 9 9 9 10 10 11 11 11 11 12 12
Wind_Direction
349 328 126 171 189 192 203 170 194 188 187 199 195 190 187 173 133 109 56 51 40 5 348 341 339 303 233 213 190 184 189 193 207 196 210 195 211 185 188 215 226 197 269 268
92 344 333 207 222 206 209 191 67 103 251 210 166 139 158 161 144 124 97 73 34 27 359 331 303 298 290 244 204 177 185 194 192 195 198 205 203 177 179 215 229 219 237 246
182 44 2 294 206 192 195 197 169 182 206 140 143 179 171 163 148 139 112 75 41 14 352 323 310 303 283 261 182 181 189 195 188 191 198 198 212 193 192 195 212 228 231 212
129 101 183 250 275 185 180 206 190 121 162 168 163 106 106 124 141 137 126 92 44 14 2 348 331 323 305 262 175 166 178 181 181 182 206 197 186 222 211 201 217 210 227 208
161 191 310 236 191 157 168 229 200 200 151 129 117 81 40 123 119 134 123 107 85 54 25 351 355 339 18 50 108 143 180 201 189 181 184 198 192 208 218 201 198 214 205 209
135 153 205 232 200 154 140 284 179 187 161 149 147 152 203 157 130 117 116 111 102 74 38 31 360 17 56 45 64 64 217 221 201 192 184 203 200 210 179 194 179 178 211 243
175 190 280 227 149 163 122 232 152 178 157 161 174 177 135 134 118 111 117 113 89 65 60 28 7 55 67 54 30 334 316 284 225 184 200 219 197 186 166 206 156 120 252 259
114 102 258 166 107 166 191 66 140 150 163 154 122 120 130 132 132 129 122 109 92 88 62 20 15 55 69 52 341 0 8 22 28 350 192 193 194 234 151 210 220 121 296 298
179 199 242 189 127 160 142 139 148 123 142 135 135 135 137 134 129 124 120 114 89 98 83 30 14 21 51 359 8 18 37 34 16 41 21 116 185 178 151 198 200 218 153 275
110 208 192 181 52 133 141 131 129 132 143 141 135 136 134 129 129 123 123 120 135 111 71 51 12 42 61 26 18 32 36 18 13 20 325 172 120 166 216 200 200 200 187 192
90 31 80 353 212 142 101 111 113 119 139 139 133 136 133 130 127 129 130 175 189 125 90 49 358 36 23 35 29 30 26 21 11 359 319 292 308 206 205 226 235 211 216 195
197 178 148 187 158 139 134 143 135 126 112 102 135 130 129 126 127 138 144 165 119 82 98 39 30 29 10 22 24 22 12 3 354 339 312 275 252 267 246 240 235 252 267 220
161 127 93 124 118 116 118 120 113 129 137 129 119 125 124 127 137 145 135 99 56 50 61 66 31 31 359 3 15 11 351 335 324 319 311 304 294 266 279 289 245 243 236 250
116 113 59 342 156 109 108 99 93 83 76 104 114 101 106 114 100 100 68 36 15 56 55 36 30 8 344 352 354 339 306 306 298 300 290 296 265 276 277 275 271 268 247 231
63 49 117 110 88 89 112 119 108 113 115 94 71 105 111 116 120 84 37 348 119 70 30 15 7 338 340 347 352 329 323 307 299 293 287 261 254 244 241 254 272 274 247 255
74 73 99 118 124 118 116 114 124 124 111 107 105 96 102 102 102 86 44 30 59 14 320 330 321 298 331 350 341 324 309 317 295 288 285 282 264 245 245 243 253 260 256 237
108 79 89 103 139 138 133 112 128 127 107 104 110 117 112 130 110 54 20 18 57 291 274 285 293 315 330 329 327 303 298 296 293 292 281 277 276 273 257 241 237 240 256 238
75 80 91 142 143 130 102 80 98 107 109 122 118 129 101 73 98 355 332 313 5 1 350 355 305 326 328 319 308 300 293 285 295 286 283 282 279 276 271 263 258 257 253 239
38 88 90 89 92 102 102 99 88 97 102 114 103 85 84 91 105 313 344 6 23 16 297 340 339 346 330 325 338 321 310 311 298 290 285 284 281 278 276 273 272 268 269 252
65 63 78 82 61 79 105 82 102 95 75 87 99 97 89 26 37 25 20 301 237 227 303 310 327 327 321 321 346 315 311 313 312 293 282 278 280 280 278 277 276 274 270 263
70 75 79 86 82 69 75 84 106 104 107 94 99 112 123 315 350 61 33 354 283 307 308 318 319 305 307 317 326 311 296 304 311 310 314 295 274 270 272 275 276 276 275 268
55 85 90 92 96 93 70 79 88 98 85 70 50 55 44 323 329 289 229 210 279 314 305 299 298 292 304 309 290 292 296 289 283 284 288 293 298 298 282 270 269 273 274 272
67 79 90 93 97 103 90 72 75 97 110 156 172 175 192 223 202 172 338 258 257 287 285 276 276 293 302 295 275 281 286 286 284 282 281 281 281 285 284 283 282 277 270 272
85 70 84 89 95 83 87 14 41 64 139 220 228 221 190 334 314 222 260 283 285 294 278 277 291 306 310 269 277 281 279 276 279 279 278 273 275 277 278 282 285 294 289 273
68 65 71 84 91 95 117 98 91 40 33 3 330 314 209 225 181 270 296 297 299 306 292 287 301 307 293 274 266 270 273 276 276 278 281 282 282 281 279 276 274 275 272 269
93 101 101 87 114 106 56 29 60 334 29 5 315 284 305 283 270 279 285 285 289 292 291 298 292 278 272 274 271 268 271 274 273 272 273 274 275 276 273 273 276 278 280 277
56 75 85 56 43 74 98 114 95 319 309 266 256 262 265 285 275 270 277 287 281 283 285 286 280 288 284 277 275 273 275 275 272 273 272 272 272 272 272 272 273 274 278 274